FW1892 Weather Reports


Display with metric or nautical units.
time (UTC)temp
F
wind
direction
speed
MPH
gust
MPH
rain 1hr
in
rain 24hr
in
rain mn
in
humidity
%
barometer
mb
20260906183307 70 24 1.0 2.0 0.00 0.04 0.04 59 1013.0
20260906183202 70 6 0.0 0.0 0.00 0.08 0.03 63 1012.4
20260906182807 70 151 0.0 1.0 0.00 0.04 0.04 58 1013.1
20260906182703 70 40 0.0 0.0 0.00 0.08 0.03 64 1012.5
20260906182306 69 339 3.0 6.0 0.00 0.04 0.04 58 1013.2
20260906182202 70 319 0.0 0.0 0.00 0.08 0.03 62 1012.6
20260906181758 70 269 2.0 3.0 0.00 0.04 0.04 58 1013.3
20260906181703 70 276 0.0 3.0 0.00 0.08 0.03 61 1012.6
20260906181254 70 176 3.0 4.0 0.00 0.04 0.04 58 1013.4
20260906181202 71 286 1.0 5.0 0.00 0.08 0.03 61 1012.6
20260906180748 70 170 3.0 4.0 0.00 0.04 0.04 56 1013.2
20260906180244 72 207 2.0 9.0 0.00 0.04 0.04 54 1013.2
20260906180203 72 273 3.0 12.0 0.00 0.08 0.03 59 1012.5
20260906175741 73 223 1.0 3.0 0.00 0.04 0.04 52 1013.3
20260906175703 72 294 0.0 7.0 0.00 0.08 0.03 62 1012.5
20260906175237 72 27 3.0 4.0 0.00 0.04 0.04 53 1013.3
20260906175203 71 325 3.0 10.0 0.00 0.08 0.03 61 1012.6
20260906174735 72 56 4.0 6.0 0.00 0.04 0.04 55 1013.2
20260906174703 71 311 0.0 1.0 0.00 0.08 0.03 62 1012.7
20260906174229 71 152 1.0 4.0 0.00 0.04 0.04 58 1013.1
20260906174203 71 331 0.0 8.0 0.00 0.08 0.03 65 1012.7
20260906173724 70 172 2.0 3.0 0.00 0.04 0.04 59 1013.3
20260906173221 71 105 1.0 3.0 0.00 0.04 0.04 59 1013.5
20260906173203 71 325 0.0 1.0 0.00 0.08 0.03 65 1012.7
20260906172720 70 80 1.0 2.0 0.00 0.04 0.04 60 1013.5
20260906172702 70 326 0.0 0.0 0.00 0.08 0.03 66 1012.9
20260906172215 71 34 1.0 2.0 0.00 0.04 0.04 60 1013.6
20260906171710 70 35 2.0 4.0 0.00 0.04 0.04 61 1013.5
20260906171703 70 69 0.0 10.0 0.00 0.08 0.03 67 1013.0
20260906171206 69 153 2.0 3.0 0.00 0.04 0.04 63 1013.5
20260906171202 70 289 0.0 3.0 0.00 0.08 0.03 67 1012.9
20260906170702 69 281 4.0 6.0 0.00 0.04 0.04 63 1013.8
20260906170203 70 45 0.0 0.0 0.00 0.08 0.03 66 1013.1
20260906165702 70 307 0.0 7.0 0.00 0.08 0.03 67 1013.1
20260906165657 70 148 1.0 6.0 0.00 0.04 0.04 60 1013.5
20260906165202 69 274 0.0 10.0 0.00 0.08 0.03 68 1013.2
20260906165158 69 217 2.0 4.0 0.00 0.04 0.04 63 1014.0
20260906164703 69 277 0.0 0.0 0.00 0.08 0.03 67 1013.3
20260906164656 69 324 4.0 7.0 0.00 0.04 0.04 60 1014.1
20260906164203 69 314 1.0 8.0 0.00 0.08 0.03 67 1013.4
20260906164152 70 324 2.0 4.0 0.00 0.04 0.04 59 1013.8
20260906163703 69 301 0.0 3.0 0.00 0.08 0.03 68 1013.4
20260906163648 70 311 1.0 4.0 0.00 0.04 0.04 59 1014.1
20260906163202 68 315 0.0 0.0 0.00 0.08 0.03 70 1013.5
20260906163144 69 65 2.0 3.0 0.00 0.04 0.04 62 1013.9
20260906162703 68 297 0.0 6.0 0.00 0.08 0.03 71 1013.5
20260906162641 69 334 3.0 6.0 0.00 0.04 0.04 63 1014.1
20260906162203 68 31 0.0 0.0 0.00 0.08 0.03 74 1013.5
20260906162140 68 89 2.0 3.0 0.00 0.04 0.04 69 1014.2
20260906161702 67 119 0.0 0.0 0.00 0.08 0.03 72 1013.5
20260906161635 66 181 0.0 1.0 0.00 0.04 0.04 71 1014.1
20260906161202 68 327 0.0 0.0 0.00 0.08 0.03 71 1013.5
20260906161134 67 82 0.0 2.0 0.00 0.04 0.04 69 1014.1
20260906160702 68 342 0.0 6.0 0.00 0.08 0.03 70 1013.6
20260906160633 68 274 1.0 4.0 0.00 0.04 0.04 64 1014.2
20260906160203 68 8 1.0 8.0 0.00 0.08 0.03 71 1013.4
20260906160133 69 153 1.0 7.0 0.00 0.04 0.04 61 1014.1
20260906155703 67 11 2.0 12.0 0.00 0.08 0.03 71 1013.5
20260906155630 68 156 3.0 4.0 0.00 0.04 0.04 64 1014.0
20260906155126 68 305 2.0 6.0 0.00 0.04 0.04 67 1014.3
20260906154703 66 317 1.0 12.0 0.00 0.08 0.03 75 1013.7
20260906154621 68 277 2.0 8.0 0.00 0.04 0.04 67 1014.2
20260906154120 67 123 1.0 6.0 0.00 0.04 0.04 70 1014.6
20260906153619 66 124 2.0 4.0 0.00 0.04 0.04 72 1014.5
20260906153223 65 91 0.0 7.0 0.00 0.16 0.03 78 1013.9
20260906153115 65 71 0.0 4.0 0.00 0.04 0.04 73 1014.5
20260906152615 65 65 2.0 4.0 0.00 0.04 0.04 73 1014.6
20260906152202 65 337 0.0 4.0 0.00 0.16 0.03 80 1013.9
20260906152109 66 320 2.0 4.0 0.00 0.04 0.04 74 1014.7
20260906151604 66 120 1.0 2.0 0.00 0.04 0.04 75 1014.5
20260906151223 66 347 0.0 2.0 0.00 0.16 0.03 82 1014.0
20260906151100 68 287 2.0 4.0 0.00 0.04 0.04 73 1014.6
20260906150555 67 67 1.0 2.0 0.00 0.04 0.04 73 1014.6
20260906150201 65 154 0.0 2.0 0.00 0.16 0.03 85 1014.1
20260906150050 66 228 3.0 3.0 0.00 0.04 0.04 73 1014.5
20260906145548 67 316 2.0 6.0 0.00 0.04 0.04 70 1014.6
20260906145202 64 332 0.0 5.0 0.00 0.16 0.03 88 1014.1
20260906145044 66 292 1.0 3.0 0.00 0.04 0.04 76 1014.7
20260906144538 64 201 3.0 3.0 0.00 0.04 0.04 79 1014.8
20260906144201 63 65 0.0 8.0 0.00 0.16 0.03 90 1014.1
20260906144033 64 260 4.0 6.0 0.00 0.04 0.04 78 1014.7
20260906143528 65 348 3.0 4.0 0.00 0.04 0.04 79 1014.4
20260906143223 62 284 0.0 0.0 0.00 0.16 0.03 92 1014.1
20260906143026 64 189 1.0 3.0 0.00 0.04 0.04 80 1014.7
20260906142524 64 132 1.0 3.0 0.00 0.04 0.04 83 1014.8
20260906142202 62 270 0.0 2.0 0.00 0.16 0.03 92 1014.2
20260906142020 64 289 0.0 4.0 0.00 0.04 0.04 83 1014.8
20260906141519 62 150 0.0 1.0 0.00 0.04 0.04 85 1014.9
20260906141202 61 12 0.0 4.0 0.00 0.16 0.03 93 1014.2
20260906141015 62 126 0.0 4.0 0.00 0.04 0.04 85 1014.7
20260906140508 62 216 1.0 1.0 0.00 0.04 0.04 88 1014.8
20260906140223 61 313 0.0 1.0 0.00 0.16 0.03 93 1014.3
20260906140007 62 137 0.0 1.0 0.00 0.04 0.04 89 1014.7
20260906135505 62 117 0.0 1.0 0.00 0.04 0.04 88 1014.7
20260906135201 61 334 0.0 1.0 0.00 0.16 0.03 94 1014.2
20260906135001 62 131 0.0 2.0 0.00 0.04 0.04 88 1014.8
20260906134456 61 110 0.0 0.0 0.00 0.04 0.04 89 1014.6
20260906134202 61 328 0.0 4.0 0.00 0.16 0.03 94 1014.2
20260906133956 62 107 0.0 1.0 0.00 0.04 0.04 89 1014.6
20260906133452 62 316 2.0 2.0 0.00 0.04 0.04 88 1014.6
20260906133201 61 51 0.0 0.0 0.00 0.16 0.03 94 1014.2
20260906132948 62 44 2.0 2.0 0.00 0.04 0.04 89 1014.6
20260906132443 61 115 0.0 1.0 0.00 0.04 0.04 90 1014.5
20260906132202 60 288 0.0 0.0 0.00 0.16 0.03 94 1014.2
20260906131938 62 139 0.0 2.0 0.00 0.04 0.04 90 1014.6
20260906131433 61 126 0.0 1.0 0.00 0.04 0.04 91 1014.5
20260906131222 60 300 0.0 0.0 0.00 0.16 0.03 94 1014.1
20260906130929 61 340 2.0 2.0 0.00 0.04 0.04 91 1014.7
20260906130428 61 277 0.0 1.0 0.00 0.04 0.04 92 1014.6
20260906130202 60 342 0.0 0.0 0.00 0.16 0.03 94 1014.1
20260906125922 61 277 1.0 2.0 0.00 0.04 0.04 92 1014.5
20260906125420 60 278 0.0 0.0 0.00 0.04 0.04 92 1014.6
20260906125202 60 211 0.0 0.0 0.00 0.16 0.03 94 1014.0
20260906124914 60 286 0.0 0.0 0.00 0.04 0.04 93 1014.4
20260906124410 60 355 0.0 0.0 0.00 0.04 0.04 93 1014.4
20260906124202 59 299 0.0 0.0 0.00 0.16 0.03 94 1014.0
20260906123909 60 356 0.0 1.0 0.00 0.04 0.04 94 1014.5
20260906123404 59 356 0.0 2.0 0.00 0.04 0.04 94 1014.4
20260906123223 59 302 0.0 0.0 0.00 0.16 0.03 94 1014.0
20260906122903 59 356 0.0 1.0 0.00 0.04 0.04 94 1014.4
20260906122358 59 167 0.0 2.0 0.00 0.04 0.04 94 1014.6
20260906122202 59 338 0.0 0.0 0.00 0.16 0.03 94 1014.0
20260906121855 59 142 1.0 3.0 0.00 0.04 0.04 95 1014.4
20260906121351 59 13 2.0 2.0 0.00 0.04 0.04 95 1014.4
20260906121202 58 334 0.0 0.0 0.00 0.16 0.03 94 1014.0
20260906120847 58 111 0.0 1.0 0.05 0.04 0.04 95 1014.5
20260906120342 58 108 0.0 1.0 0.05 0.04 0.04 95 1014.5
20260906120202 58 13 0.0 0.0 0.00 0.16 0.03 94 1014.0
20260906115838 58 321 0.0 2.0 0.00 0.03 0.03 95 1014.5
20260906115334 58 124 0.0 1.0 0.00 0.03 0.03 96 1014.5
20260906115223 58 347 0.0 0.0 0.01 0.16 0.03 94 1014.0
20260906114833 58 90 0.0 1.0 0.00 0.03 0.03 96 1014.3
20260906114328 58 27 0.0 2.0 0.00 0.03 0.03 96 1014.5
20260906114202 58 330 0.0 0.0 0.01 0.16 0.03 94 1013.9
20260906113823 58 50 0.0 0.0 0.00 0.03 0.03 96 1014.2
20260906113322 57 274 1.0 2.0 0.00 0.03 0.03 96 1014.4
20260906113202 58 313 0.0 0.0 0.01 0.16 0.03 94 1013.8
20260906112818 57 230 2.0 2.0 0.00 0.03 0.03 96 1014.2
20260906112314 57 254 2.0 3.0 0.00 0.03 0.03 96 1014.2
20260906112201 57 329 0.0 0.0 0.01 0.16 0.03 94 1013.7
20260906111814 57 94 0.0 1.0 0.00 0.03 0.03 96 1014.2
20260906111308 57 106 0.0 0.0 0.00 0.03 0.03 96 1014.1
20260906111202 57 22 0.0 0.0 0.01 0.16 0.03 94 1013.5
20260906110803 57 132 0.0 0.0 0.00 0.03 0.03 96 1013.8
20260906110259 57 132 0.0 0.0 0.00 0.03 0.03 96 1013.9
20260906110202 57 22 0.0 0.0 0.00 0.15 0.02 94 1013.3
20260906105757 57 107 0.0 0.0 0.00 0.03 0.03 96 1013.9
20260906105253 57 118 0.0 0.0 0.00 0.03 0.03 96 1013.9
20260906105202 57 22 0.0 0.0 0.00 0.15 0.02 94 1013.2
20260906104748 57 129 0.0 0.0 0.00 0.03 0.03 96 1013.7
20260906104247 56 138 0.0 0.0 0.00 0.03 0.03 96 1013.6
20260906104202 57 22 0.0 0.0 0.00 0.15 0.02 93 1013.1
20260906103745 56 125 0.0 0.0 0.00 0.03 0.03 96 1013.4
20260906103239 56 125 0.0 0.0 0.00 0.03 0.03 96 1013.4
20260906103202 57 22 0.0 0.0 0.00 0.15 0.02 93 1012.9
20260906102736 56 126 0.0 0.0 0.00 0.03 0.03 96 1013.4
20260906102235 56 125 0.0 0.0 0.00 0.03 0.03 96 1013.4
20260906102202 57 22 0.0 0.0 0.00 0.15 0.02 93 1012.8
20260906101730 57 132 0.0 0.0 0.00 0.03 0.03 96 1013.4
20260906101224 57 135 0.0 0.0 0.00 0.03 0.03 96 1013.3
20260906101202 57 22 0.0 0.0 0.00 0.15 0.02 93 1012.9
20260906100720 57 136 0.0 0.0 0.00 0.03 0.03 95 1013.3
20260906100214 57 111 0.0 0.0 0.00 0.03 0.03 95 1013.3
20260906100202 57 22 0.0 0.0 0.00 0.15 0.02 93 1012.8
20260906095709 57 133 0.0 0.0 0.00 0.03 0.03 95 1013.2
20260906095223 57 22 0.0 0.0 0.00 0.15 0.02 93 1012.7
20260906095204 57 113 0.0 0.0 0.00 0.03 0.03 95 1013.1
20260906094703 57 117 0.0 0.0 0.00 0.03 0.03 95 1013.4
20260906094202 57 22 0.0 0.0 0.00 0.15 0.02 93 1012.6
20260906094159 57 147 0.0 0.0 0.00 0.03 0.03 95 1013.1
20260906093655 57 272 0.0 0.0 0.00 0.03 0.03 95 1013.0
20260906093202 58 22 0.0 0.0 0.00 0.15 0.02 93 1012.4
20260906093150 57 118 0.0 0.0 0.00 0.03 0.03 95 1013.0
20260906092645 57 105 0.0 0.0 0.00 0.03 0.03 95 1012.6
20260906092202 58 23 0.0 0.0 0.00 0.15 0.02 93 1012.4
20260906092144 57 128 0.0 0.0 0.00 0.03 0.03 95 1013.1
20260906091641 57 118 0.0 0.0 0.00 0.03 0.03 95 1013.0
20260906091202 58 23 0.0 0.0 0.00 0.15 0.02 93 1012.3
20260906091138 57 121 0.0 0.0 0.00 0.03 0.03 95 1012.9
20260906090633 57 127 0.0 0.0 0.00 0.03 0.03 95 1012.9
20260906090202 58 23 0.0 0.0 0.00 0.15 0.02 93 1012.3
20260906090132 57 103 0.0 0.0 0.00 0.03 0.03 95 1012.9
20260906085631 57 114 0.0 0.0 0.00 0.03 0.03 95 1012.9
20260906085224 58 23 0.0 0.0 0.01 0.15 0.02 93 1012.4
20260906085126 57 118 0.0 0.0 0.00 0.03 0.03 95 1013.0
20260906084626 57 118 0.0 0.0 0.00 0.03 0.03 95 1013.0
20260906084202 58 23 0.0 0.0 0.01 0.15 0.02 93 1012.4
20260906084125 57 129 0.0 0.0 0.00 0.03 0.03 95 1012.9
20260906083620 58 167 0.0 0.0 0.00 0.03 0.03 95 1012.9
20260906083202 58 5 0.0 0.0 0.01 0.15 0.02 93 1012.3
20260906083115 58 120 0.0 0.0 0.00 0.03 0.03 95 1012.8
20260906082611 58 115 0.0 0.0 0.00 0.03 0.03 95 1012.8
20260906082202 58 350 0.0 0.0 0.01 0.15 0.02 93 1012.3
20260906082106 58 153 0.0 2.0 0.07 0.03 0.03 95 1012.6
20260906081602 58 129 0.0 0.0 0.07 0.03 0.03 95 1013.2
20260906081201 59 336 0.0 0.0 0.01 0.15 0.02 93 1012.3
20260906081057 58 111 0.0 1.0 0.00 0.02 0.02 95 1012.9
20260906080554 58 143 0.0 1.0 0.00 0.02 0.02 95 1012.9
20260906080223 59 360 0.0 0.0 0.00 0.14 0.01 93 1012.2
20260906080049 58 148 0.0 0.0 0.05 0.02 0.02 95 1012.9
20260906075543 58 119 0.0 0.0 0.05 0.02 0.02 95 1012.5
20260906075202 59 5 0.0 0.0 0.01 0.14 0.01 93 1012.1
20260906075038 58 115 0.0 1.0 0.00 0.01 0.01 95 1012.6
20260906074533 58 66 1.0 1.0 0.07 0.01 0.01 95 1012.7
20260906074202 59 13 0.0 1.0 0.01 0.14 0.01 93 1012.1
20260906074031 58 105 0.0 1.0 0.07 0.01 0.01 95 1012.7
20260906073527 58 111 0.0 1.0 0.00 0.00 0.00 95 1012.9
20260906073202 59 346 0.0 0.0 0.00 0.13 0.00 93 1012.2
20260906073023 59 337 1.0 1.0 0.00 0.00 0.00 95 1013.0
20260906072517 58 255 0.0 0.0 0.00 0.00 0.00 95 1012.6
20260906072202 59 37 0.0 0.0 0.00 0.13 0.00 93 1011.9
20260906072014 58 92 0.0 0.0 0.00 0.00 0.00 95 1012.4
20260906071510 58 114 0.0 0.0 0.00 0.00 0.00 95 1012.4
20260906071202 59 37 0.0 0.0 0.00 0.13 0.00 93 1011.8
20260906071004 58 128 0.0 0.0 0.00 0.00 0.00 95 1012.2
20260906070500 58 111 0.0 0.0 0.00 0.00 0.00 95 1012.3
20260906070202 59 37 0.0 0.0 0.00 0.13 0.00 93 1011.7
20260906065955 59 109 0.0 0.0 0.00 0.00 0.00 95 1012.3
20260906065449 59 104 0.0 0.0 0.00 0.00 0.00 96 1012.4
20260906065202 59 37 0.0 0.0 0.00 0.13 0.00 93 1011.8
20260906064945 59 116 0.0 0.0 0.00 0.00 0.00 96 1012.4
20260906064441 59 105 0.0 0.0 0.00 0.00 0.00 96 1012.2
20260906064202 60 37 0.0 0.0 0.00 0.13 0.00 93 1011.5
20260906063936 59 125 0.0 0.0 0.00 0.00 0.00 96 1012.1
20260906063432 59 117 0.0 0.0 0.00 0.00 0.00 96 1012.2
20260906063202 60 37 0.0 0.0 0.00 0.13 0.00 93 1011.5
20260906062932 59 82 0.0 0.0 0.00 0.00 0.00 96 1012.1
20260906062427 59 108 0.0 0.0 0.00 0.00 0.00 96 1012.2
20260906062202 60 332 0.0 0.0 0.00 0.13 0.00 93 1011.5
20260906061922 60 103 0.0 2.0 0.00 0.00 0.00 96 1012.3
20260906061418 60 105 0.0 0.0 0.00 0.00 0.00 96 1012.1
20260906061202 61 31 0.0 0.0 0.00 0.13 0.00 93 1011.5
20260906060912 60 99 0.0 0.0 0.00 0.00 0.00 96 1012.3
20260906060410 60 106 0.0 0.0 0.00 0.00 0.00 96 1012.3
20260906060201 61 341 0.0 0.0 0.00 0.13 0.00 93 1011.6
20260906055906 60 97 0.0 1.0 0.00 0.00 0.00 96 1012.4
20260906055401 60 130 0.0 0.0 0.00 0.00 0.00 96 1012.3
20260906055202 61 341 0.0 0.0 0.00 0.13 0.00 93 1011.7
20260906054856 60 53 0.0 1.0 0.00 0.00 0.00 96 1012.4
20260906054351 60 59 1.0 1.0 0.00 0.00 0.00 96 1012.4
20260906054202 61 24 0.0 0.0 0.00 0.13 0.00 93 1011.7
20260906053847 61 103 0.0 1.0 0.00 0.00 0.00 97 1012.3
20260906053343 60 172 0.0 0.0 0.00 0.00 0.00 97 1012.4
20260906053202 61 25 0.0 0.0 0.00 0.13 0.00 93 1011.6
20260906052838 60 125 0.0 0.0 0.00 0.00 0.00 97 1012.3
20260906052334 60 103 0.0 0.0 0.00 0.00 0.00 96 1012.4
20260906052202 61 25 0.0 0.0 0.00 0.13 0.00 93 1011.6
20260906051831 60 70 0.0 0.0 0.00 0.00 0.00 96 1012.2
20260906051330 60 117 0.0 0.0 0.00 0.00 0.00 96 1012.3
20260906051202 61 25 0.0 0.0 0.00 0.13 0.00 93 1011.7
20260906050826 60 117 0.0 2.0 0.00 0.00 0.00 96 1012.4
20260906050321 60 128 0.0 0.0 0.00 0.00 0.00 96 1012.4
20260906050202 61 25 0.0 0.0 0.00 0.13 0.00 93 1011.6
20260906045820 60 112 0.0 0.0 0.00 0.00 0.00 96 1012.4
20260906045315 60 123 0.0 0.0 0.00 0.00 0.00 96 1012.3
20260906045202 61 25 0.0 0.0 0.00 0.13 0.00 93 1011.7
20260906044811 60 119 0.0 0.0 0.00 0.00 0.00 96 1012.3
20260906044310 60 97 0.0 0.0 0.00 0.00 0.00 96 1012.2
20260906044202 61 25 0.0 0.0 0.00 0.13 0.00 93 1011.6
20260906043806 61 115 0.0 0.0 0.00 0.00 0.00 96 1012.4
20260906043302 60 0 0.0 2.0 0.00 0.00 0.00 96 1012.2
20260906043202 61 327 0.0 0.0 0.00 0.13 0.00 93 1011.6
20260906042757 61 61 0.0 1.0 0.00 0.00 0.00 96 1012.3
20260906042256 61 302 0.0 0.0 0.00 0.00 0.00 96 1012.2
20260906042202 61 339 0.0 0.0 0.00 0.13 0.00 93 1011.7
20260906041752 61 302 0.0 1.0 0.00 0.00 0.00 96 1012.2
20260906041247 61 257 0.0 1.0 0.00 0.00 0.00 96 1012.4
20260906041202 61 292 0.0 0.0 0.00 0.13 0.00 92 1011.7
20260906040742 61 257 0.0 0.0 0.00 0.00 0.00 96 1012.4
20260906040237 61 257 0.0 0.0 0.00 0.00 0.00 96 1012.2
20260906040202 62 292 0.0 0.0 0.00 0.13 0.00 92 1011.6
20260906035732 61 257 0.0 0.0 0.00 0.17 0.17 96 1012.2
20260906035228 61 257 0.0 0.0 0.00 0.17 0.17 96 1012.1
20260906035202 62 292 0.0 0.0 0.00 0.13 0.13 93 1011.5
20260906034727 61 257 0.0 0.0 0.00 0.17 0.17 96 1012.2
20260906034217 61 257 0.0 0.0 0.00 0.17 0.17 96 1012.3
20260906034202 62 292 0.0 0.0 0.00 0.13 0.13 92 1011.5
20260906033712 61 257 0.0 0.0 0.00 0.17 0.17 96 1012.1
20260906033207 61 257 0.0 0.0 0.00 0.17 0.17 96 1012.0
20260906033202 62 292 0.0 0.0 0.00 0.13 0.13 92 1011.5
20260906032704 61 257 0.0 0.0 0.00 0.17 0.17 96 1012.1
20260906032203 61 257 0.0 0.0 0.00 0.17 0.17 96 1012.2
20260906031659 61 257 0.0 0.0 0.00 0.17 0.17 96 1012.3
20260906031224 62 292 0.0 0.0 0.00 0.13 0.13 92 1011.4
20260906031154 61 257 0.0 0.0 0.00 0.17 0.17 96 1011.9
20260906030654 61 257 0.0 0.0 0.00 0.17 0.17 96 1011.8
20260906030202 62 292 0.0 0.0 0.00 0.13 0.13 92 1011.3
20260906030149 61 257 0.0 0.0 0.00 0.17 0.17 95 1012.1
20260906025648 61 257 0.0 0.0 0.00 0.17 0.17 95 1012.2
20260906025202 62 292 0.0 0.0 0.01 0.13 0.13 92 1011.3
20260906025148 61 257 0.0 0.0 0.00 0.17 0.17 95 1012.1
20260906024642 61 257 0.0 0.0 0.00 0.17 0.17 95 1012.0
20260906024202 62 292 0.0 0.0 0.01 0.13 0.13 92 1011.3
20260906024136 61 257 0.0 0.0 0.00 0.17 0.17 95 1012.0
20260906023632 62 257 0.0 1.0 0.00 0.17 0.17 95 1012.2
20260906023202 62 292 0.0 0.0 0.01 0.13 0.13 92 1011.4
20260906023132 62 257 0.0 0.0 0.00 0.17 0.17 95 1012.1
20260906022627 61 257 0.0 0.0 0.00 0.17 0.17 95 1012.2
20260906022202 62 292 0.0 0.0 0.01 0.13 0.13 92 1011.3
20260906022123 62 257 0.0 1.0 0.00 0.17 0.17 95 1011.9
20260906021619 62 257 0.0 0.0 0.07 0.17 0.17 95 1012.0
20260906021202 62 292 0.0 0.0 0.01 0.13 0.13 92 1011.3
20260906021117 62 257 0.0 0.0 0.07 0.17 0.17 95 1011.9
20260906020617 62 257 0.0 0.0 0.00 0.16 0.16 95 1011.9
20260906020202 63 292 0.0 0.0 0.00 0.12 0.12 91 1011.2
20260906020112 62 257 0.0 0.0 0.00 0.16 0.16 95 1011.9
20260906015611 62 257 1.0 1.0 0.00 0.16 0.16 94 1011.8
20260906015202 63 342 0.0 0.0 0.02 0.12 0.12 91 1011.2
20260906015105 62 32 0.0 1.0 0.05 0.16 0.16 95 1012.0
20260906014559 62 41 0.0 1.0 0.05 0.16 0.16 94 1011.8
20260906014224 63 345 0.0 0.0 0.02 0.12 0.12 91 1011.4
20260906014056 62 41 0.0 1.0 0.00 0.15 0.15 94 1012.2
20260906013545 62 98 0.0 1.0 0.00 0.15 0.15 94 1012.3
20260906013202 63 348 0.0 0.0 0.02 0.12 0.12 91 1011.4
20260906013041 62 89 0.0 0.0 0.07 0.15 0.15 94 1012.2
20260906012536 62 91 1.0 2.0 0.00 0.14 0.14 94 1012.2
20260906012203 63 87 0.0 0.0 0.01 0.11 0.11 91 1011.4
20260906012035 62 26 2.0 2.0 0.00 0.14 0.14 94 1012.3
20260906011532 63 279 1.0 2.0 0.00 0.14 0.14 94 1012.3
20260906011202 64 309 0.0 0.0 0.01 0.11 0.11 91 1011.4
20260906011031 63 84 0.0 0.0 0.00 0.14 0.14 94 1012.2
20260906010527 63 111 0.0 1.0 0.12 0.14 0.14 94 1012.0
20260906010202 64 318 0.0 0.0 0.00 0.10 0.10 90 1011.3
20260906010023 63 283 2.0 3.0 0.12 0.14 0.14 93 1011.9
20260906005522 64 123 0.0 2.0 0.05 0.12 0.12 94 1011.9
20260906005223 64 303 0.0 0.0 0.01 0.09 0.09 90 1011.2
20260906005021 63 138 0.0 0.0 0.05 0.12 0.12 94 1011.8
20260906004521 63 129 0.0 0.0 0.00 0.11 0.11 94 1011.9
20260906004202 64 190 0.0 0.0 0.01 0.09 0.09 90 1011.1
20260906004015 63 148 0.0 0.0 0.00 0.11 0.11 93 1011.8
20260906003510 64 136 0.0 0.0 0.00 0.11 0.11 93 1011.9
20260906003202 65 190 0.0 0.0 0.01 0.09 0.09 90 1011.0
20260906003007 63 137 0.0 0.0 0.00 0.11 0.11 93 1011.7
20260906002501 64 137 0.0 1.0 0.07 0.11 0.11 93 1011.5
20260906002202 65 221 0.0 0.0 0.00 0.08 0.08 90 1010.8
20260906001956 64 140 0.0 0.0 0.07 0.11 0.11 93 1011.5
20260906001452 64 180 1.0 1.0 0.00 0.10 0.10 93 1011.6
20260906001202 65 55 0.0 0.0 0.00 0.08 0.08 90 1010.9
20260906000946 64 125 0.0 0.0 0.00 0.10 0.10 94 1011.6
20260906000441 64 120 0.0 0.0 0.00 0.10 0.10 93 1011.6
20260906000204 65 55 0.0 0.0 0.00 0.08 0.08 89 1010.8
20260905235936 64 137 0.0 0.0 0.00 0.10 0.10 93 1011.4
20260905235436 64 134 0.0 1.0 0.00 0.10 0.10 93 1011.4
20260905235202 66 55 0.0 0.0 0.00 0.08 0.08 89 1010.7
20260905234931 64 176 1.0 1.0 0.00 0.10 0.10 93 1011.5
20260905234426 64 132 0.0 0.0 0.00 0.10 0.10 93 1011.4
20260905234202 66 28 0.0 0.0 0.00 0.08 0.08 89 1010.6
20260905233921 64 135 0.0 0.0 0.00 0.10 0.10 93 1011.2
20260905233416 64 138 0.0 1.0 0.00 0.10 0.10 93 1011.1
20260905233202 66 360 0.0 0.0 0.00 0.08 0.08 88 1010.4
20260905232915 64 98 0.0 0.0 0.00 0.10 0.10 93 1011.1
20260905232411 65 120 0.0 0.0 0.00 0.10 0.10 92 1011.1
20260905232223 66 114 0.0 0.0 0.00 0.08 0.08 88 1010.4
20260905231907 65 139 0.0 0.0 0.00 0.10 0.10 92 1011.3
20260905231403 65 152 0.0 0.0 0.00 0.10 0.10 92 1011.2
20260905231202 67 115 0.0 0.0 0.00 0.08 0.08 87 1010.4
20260905230859 65 155 0.0 0.0 0.00 0.10 0.10 91 1011.1
20260905230356 65 132 0.0 0.0 0.00 0.10 0.10 91 1011.0
20260905230202 67 115 0.0 0.0 0.00 0.08 0.08 87 1010.2
20260905225855 66 154 0.0 0.0 0.00 0.10 0.10 90 1010.9
20260905225345 66 133 0.0 0.0 0.05 0.10 0.10 90 1011.0
20260905225202 67 115 0.0 0.0 0.00 0.08 0.08 86 1010.2
20260905224840 66 143 0.0 0.0 0.05 0.10 0.10 88 1011.1
20260905224335 66 149 0.0 0.0 0.00 0.09 0.09 88 1010.9
20260905224202 67 115 0.0 0.0 0.00 0.08 0.08 86 1010.1
20260905223830 66 132 0.0 0.0 0.00 0.09 0.09 88 1010.8
20260905223328 66 153 0.0 0.0 0.00 0.09 0.09 87 1010.8
20260905223202 67 115 0.0 0.0 0.00 0.08 0.08 86 1010.0
20260905222823 67 138 0.0 0.0 0.00 0.09 0.09 87 1010.9
20260905222322 67 143 0.0 0.0 0.00 0.09 0.09 86 1010.7
20260905222223 67 115 0.0 0.0 0.00 0.08 0.08 86 1009.9
20260905221818 67 171 0.0 0.0 0.00 0.09 0.09 86 1010.8
20260905221315 67 141 0.0 0.0 0.00 0.09 0.09 86 1010.6
20260905221202 67 115 0.0 0.0 0.00 0.08 0.08 85 1010.0
20260905220810 67 149 0.0 0.0 0.00 0.09 0.09 86 1010.6
20260905220306 67 167 0.0 0.0 0.00 0.09 0.09 86 1010.6
20260905220202 67 115 0.0 0.0 0.00 0.08 0.08 85 1009.8
20260905215805 67 143 0.0 0.0 0.00 0.09 0.09 85 1010.3
20260905215301 67 126 0.0 0.0 0.00 0.09 0.09 85 1010.3
20260905215202 67 112 0.0 0.0 0.00 0.08 0.08 84 1009.7
20260905214756 67 100 0.0 0.0 0.00 0.09 0.09 84 1010.5
20260905214252 67 95 0.0 0.0 0.00 0.09 0.09 84 1010.2
20260905214202 67 137 0.0 0.0 0.00 0.08 0.08 84 1009.5
20260905213747 67 143 0.0 0.0 0.00 0.09 0.09 84 1010.3
20260905213243 67 147 0.0 1.0 0.00 0.09 0.09 84 1010.4
20260905213202 68 138 0.0 0.0 0.00 0.08 0.08 84 1009.4
20260905212738 67 151 2.0 3.0 0.00 0.09 0.09 83 1010.2
20260905212237 67 60 1.0 2.0 0.00 0.09 0.09 83 1010.1
20260905212202 68 211 0.0 2.0 0.00 0.08 0.08 84 1009.3
20260905211737 68 134 1.0 4.0 0.00 0.09 0.09 82 1010.1
20260905211232 68 22 2.0 2.0 0.00 0.09 0.09 82 1010.1
20260905211202 68 78 0.0 8.0 0.00 0.08 0.08 83 1009.3
20260905210729 69 42 3.0 3.0 0.00 0.09 0.09 80 1010.1
20260905210228 69 76 1.0 6.0 0.00 0.09 0.09 80 1009.9
20260905210202 68 113 2.0 9.0 0.00 0.08 0.08 84 1009.2
20260905205727 69 53 2.0 3.0 0.00 0.09 0.09 81 1009.9
20260905205222 69 150 1.0 4.0 0.00 0.09 0.09 82 1009.7
20260905205202 68 101 0.0 1.0 0.00 0.08 0.08 84 1009.1
20260905204722 68 197 1.0 4.0 0.00 0.09 0.09 83 1009.8
20260905204218 68 143 1.0 2.0 0.00 0.09 0.09 84 1010.0
20260905204202 68 132 0.0 4.0 0.00 0.08 0.08 85 1009.0
20260905203717 68 107 4.0 6.0 0.00 0.09 0.09 84 1009.8
20260905203213 68 142 2.0 9.0 0.00 0.09 0.09 84 1009.9
20260905202709 68 133 0.0 3.0 0.00 0.09 0.09 86 1009.8
20260905202403 69 109 1.0 11.0 0.08 0.08 0.08 84 1009.3
20260905202203 68 172 1.0 4.0 0.00 0.09 0.09 88 1009.8
20260905201659 67 160 1.0 6.0 0.00 0.09 0.09 87 1009.8
20260905201353 70 83 0.0 4.0 0.08 0.08 0.08 81 1009.3
20260905201158 67 160 3.0 4.0 0.00 0.09 0.09 87 1009.8
20260905200702 71 134 0.0 7.0 0.08 0.08 0.08 79 1008.8
20260905200654 68 105 1.0 2.0 0.00 0.09 0.09 88 1009.6
20260905200203 72 93 1.0 3.0 0.08 0.08 0.08 77 1008.6
20260905200149 68 68 1.0 3.0 0.00 0.09 0.09 89 1009.7
20260905195703 73 116 0.0 0.0 0.08 0.08 0.08 75 1008.6
20260905195648 67 184 1.0 1.0 0.07 0.09 0.09 87 1009.4
20260905195203 73 116 0.0 0.0 0.07 0.07 0.07 73 1008.5
20260905195143 68 144 0.0 1.0 0.54 0.09 0.09 84 1009.3
20260905194638 71 173 1.0 2.0 0.42 0.07 0.07 76 1009.6
20260905194203 75 21 2.0 14.0 0.00 0.00 0.00 65 1008.5
20260905194137 75 197 4.0 7.0 0.00 0.00 0.00 62 1009.3
20260905193703 76 323 0.0 3.0 0.00 0.00 0.00 61 1008.3
20260905193633 76 41 1.0 3.0 0.00 0.00 0.00 57 1009.1
20260905193203 76 316 0.0 0.0 0.00 0.00 0.00 61 1008.2
20260905193133 76 217 1.0 2.0 0.00 0.00 0.00 56 1009.1
20260905192703 76 306 0.0 0.0 0.00 0.00 0.00 61 1008.2
20260905192628 76 193 1.0 3.0 0.00 0.00 0.00 57 1009.1
20260905192203 77 27 0.0 0.0 0.00 0.00 0.00 60 1008.1
20260905192125 76 189 1.0 3.0 0.00 0.00 0.00 57 1009.0
20260905191703 77 283 0.0 0.0 0.00 0.00 0.00 61 1008.1
20260905191624 76 251 2.0 4.0 0.00 0.00 0.00 58 1009.0
20260905191203 77 349 0.0 0.0 0.00 0.00 0.00 60 1008.2
20260905191122 77 249 2.0 2.0 0.00 0.00 0.00 56 1008.9
20260905190703 77 147 0.0 0.0 0.00 0.00 0.00 60 1008.2
20260905190621 77 232 1.0 3.0 0.00 0.00 0.00 55 1009.1
20260905190203 77 117 0.0 1.0 0.00 0.00 0.00 61 1008.2
20260905190121 78 267 1.0 2.0 0.00 0.00 0.00 55 1009.2
20260905185703 77 15 0.0 3.0 0.00 0.00 0.00 61 1008.1
20260905185619 77 167 3.0 6.0 0.00 0.00 0.00 56 1008.9
20260905185202 77 343 0.0 1.0 0.00 0.00 0.00 62 1008.2
20260905185114 77 18 1.0 3.0 0.00 0.00 0.00 55 1008.9
20260905184703 76 312 0.0 0.0 0.00 0.00 0.00 63 1008.1
20260905184609 77 302 1.0 2.0 0.00 0.00 0.00 57 1008.8
20260905184108 76 257 4.0 6.0 0.00 0.00 0.00 57 1009.0
20260905183607 75 320 2.0 6.0 0.00 0.00 0.00 58 1009.0